F5PHW-13 Weather Reports


time (UTC)temp
F
wind
direction
speed
knots
gust
knots
rain 1hr
in
rain 24hr
in
rain mn
in
humidity
%
barometer
mb
20260510102117 55 45 5.2 11.3 0.13 0.28 0.28 89 1007.2
20260510100117 55 45 5.2 12.2 0.11 0.22 0.22 89 1007.3
20260510094117 55 45 4.3 11.3 0.08 0.18 0.18 88 1007.4
20260510092116 55 67 4.3 9.6 0.07 0.14 0.14 89 1007.4
20260510090116 55 67 3.5 8.7 0.03 0.11 0.11 88 1007.5
20260510084116 55 45 4.3 9.6 0.03 0.10 0.10 88 1007.5
20260510082116 55 67 4.3 9.6 0.01 0.07 0.07 88 1007.7
20260510080116 55 67 4.3 10.4 0.03 0.07 0.07 88 1007.7
20260510074116 55 45 3.5 9.6 0.05 0.07 0.07 88 1007.7
20260510072116 56 45 3.5 8.7 0.05 0.06 0.06 87 1007.6
20260510070116 56 45 2.6 7.0 0.03 0.03 0.03 87 1007.7
20260510064116 56 22 0.9 7.0 0.00 0.01 0.01 87 1007.8
20260510062116 56 45 0.9 3.5 0.00 0.00 0.00 86 1007.6
20260510060116 56 67 1.7 6.1 0.00 0.00 0.00 86 1007.2
20260510054116 56 45 2.6 7.0 0.00 0.00 0.00 86 1007.0
20260510052116 56 67 2.6 6.1 0.00 0.00 0.00 85 1007.1
20260510050116 56 157 0.9 3.5 0.00 0.00 0.00 85 1007.2
20260510044116 56 112 2.6 7.0 0.00 0.00 0.00 85 1006.9
20260510042116 56 67 3.5 10.4 0.00 0.00 0.00 84 1006.7
20260510040116 56 135 3.5 7.8 0.00 0.00 0.00 84 1006.9
20260510034116 56 67 6.1 16.5 0.00 0.00 0.00 83 1006.5
20260510032116 56 45 5.2 11.3 0.00 0.00 0.00 83 1006.5
20260510030116 56 67 3.5 9.6 0.00 0.03 0.00 83 1006.5
20260510024116 57 67 5.2 10.4 0.00 0.05 0.00 83 1006.4
20260510022116 57 67 6.1 12.2 0.00 0.11 0.00 83 1006.5
20260510020116 57 67 4.3 11.3 0.00 0.14 0.00 84 1006.8
20260510014116 57 67 5.2 10.4 0.00 0.18 0.00 84 1007.2
20260510012116 57 67 4.3 9.6 0.00 0.27 0.00 84 1007.6
20260510010116 57 90 3.5 8.7 0.00 0.31 0.00 84 1007.8
20260510004116 57 67 3.5 9.6 0.00 0.32 0.00 84 1008.0
20260510002116 57 67 3.5 7.8 0.00 0.32 0.00 84 1008.2
20260510000118 57 90 3.5 9.6 0.00 0.33 0.00 83 1008.4
20260509234118 58 90 4.3 9.6 0.00 0.34 0.00 83 1008.5
20260509230117 58 67 4.3 9.6 0.00 0.37 0.00 82 1009.0
20260509224117 59 90 3.5 10.4 0.00 0.37 0.00 82 1009.2
20260509222117 59 67 4.3 9.6 0.00 0.37 0.00 81 1009.2
20260509220117 60 90 4.3 9.6 0.00 0.37 0.00 81 1009.2
20260509214116 60 67 5.2 11.3 0.00 0.37 0.37 81 1009.3
20260509212116 61 90 3.5 7.8 0.00 0.37 0.37 80 1009.3
20260509210116 61 67 3.5 8.7 0.00 0.37 0.37 79 1009.3
20260509204115 62 45 4.3 9.6 0.00 0.37 0.37 78 1009.3
20260509202115 63 67 3.5 9.6 0.00 0.37 0.37 77 1009.4
20260509200115 63 67 4.3 11.3 0.00 0.37 0.37 76 1009.1
20260509194118 64 90 4.3 10.4 0.00 0.37 0.37 76 1008.9
20260509192117 65 67 3.5 8.7 0.00 0.37 0.37 76 1008.8
20260509190117 66 67 4.3 10.4 0.00 0.37 0.37 76 1008.7
20260509184117 67 45 4.3 9.6 0.00 0.37 0.37 76 1008.5
20260509182117 68 67 4.3 9.6 0.00 0.37 0.37 75 1008.2
20260509180117 69 67 4.3 10.4 0.00 0.37 0.37 74 1008.2
20260509174117 70 67 3.5 8.7 0.00 0.37 0.37 73 1008.0
20260509172117 70 67 2.6 7.8 0.00 0.37 0.37 72 1008.0
20260509170117 71 67 4.3 11.3 0.00 0.37 0.37 72 1008.1
20260509164117 71 90 4.3 9.6 0.00 0.37 0.37 72 1008.2
20260509162117 71 67 4.3 11.3 0.00 0.37 0.37 72 1008.2
20260509160117 70 67 3.5 12.2 0.00 0.37 0.37 73 1008.3
20260509154117 70 67 4.3 10.4 0.00 0.37 0.37 73 1008.5
20260509152117 69 90 5.2 10.4 0.00 0.37 0.37 74 1008.6
20260509150117 70 90 4.3 12.2 0.00 0.37 0.37 75 1008.7
20260509144117 69 90 4.3 9.6 0.00 0.37 0.37 76 1009.0
20260509142117 68 90 1.7 6.1 0.00 0.37 0.37 77 1009.2
20260509140117 67 90 5.2 10.4 0.00 0.37 0.37 75 1009.3
20260509134117 67 90 5.2 9.6 0.00 0.37 0.37 77 1009.4
20260509132117 66 112 3.5 7.8 0.00 0.37 0.37 77 1009.6
20260509130117 66 112 5.2 12.2 0.00 0.37 0.37 75 1009.7
20260509124117 66 90 6.1 13.0 0.00 0.37 0.37 75 1009.3
20260509122117 66 112 6.1 13.0 0.00 0.37 0.37 75 1009.5
20260509120117 66 90 7.0 16.5 0.00 0.37 0.37 74 1009.6
20260509114117 66 112 5.2 13.0 0.00 0.37 0.37 75 1009.8
20260509112116 65 90 5.2 11.3 0.00 0.37 0.37 74 1009.8
20260509110116 65 112 3.5 11.3 0.00 0.37 0.37 74 1009.9
20260509104117 65 112 7.0 14.8 0.00 0.37 0.37 75 1009.6